Observations for Trim Patrick St
| Time | AQI | Temp °C | Hum % | Pres Pa | CO μg/m³ | H₂S μg/m³ | NO μg/m³ | NO₂ μg/m³ | O₃ μg/m³ | SO₂ μg/m³ | PM1 μg/m³ | PM2.5 μg/m³ | PM10 μg/m³ |
|---|---|---|---|---|---|---|---|---|---|---|---|---|---|
| Wednesday 5 August 2026 | |||||||||||||
| 16:54 | 2 | 22.9 | 54 | 73,885 | 0.11 | 0 | 3.18 | 7.31 | 33.43 | 5.08 | 2 | 6.17 | 6.79 |
| 16:53 | 2 | 23 | 54 | 74,283 | 0.08 | 0 | 3.06 | 11.44 | 25.14 | 4.56 | 2 | 6.93 | 7.62 |
| 16:52 | 2 | 23 | 55 | 74,581 | 0.07 | 0 | 3.01 | 12.98 | 47.64 | 3.86 | 2 | 6.09 | 6.69 |
| 16:51 | 2 | 22.9 | 55 | 74,982 | 0.06 | 0 | 3.12 | 8.82 | 27.47 | 4.71 | 2 | 6.11 | 6.72 |
| 16:50 | 2 | 22.8 | 58 | 75,420 | 0.03 | 0 | 3.18 | 12.79 | 49.29 | 4.87 | 2 | 5.88 | 6.46 |
| 16:49 | 2 | 22.6 | 59 | 75,741 | 0.02 | 0 | 3.14 | 15.79 | 56.53 | 3.32 | 2 | 5.87 | 6.46 |
| 16:48 | 2 | 22.3 | 58 | 76,049 | 0 | 5.09 | 3.26 | 9.95 | 50.06 | 6.23 | 2 | 5.9 | 6.49 |
| 16:47 | 2 | 22 | 61 | 76,441 | 0 | 8 | 3.4 | 46.91 | 53.43 | 3.95 | 2 | 5.72 | 6.29 |
| 16:46 | 2 | 21.7 | 60 | 76,533 | 0 | 4.79 | 3.28 | 13.38 | 64.41 | 4.02 | 2 | 5.81 | 6.39 |
| 16:45 | 2 | 21.5 | 61 | 76,786 | 0 | 4.48 | 3.36 | 12.96 | 68.91 | 3.8 | 2 | 5.72 | 6.29 |
| 16:44 | 2 | 21.3 | 61 | 76,999 | 0 | 2.8 | 3.29 | 12.74 | 64.93 | 3.5 | 2 | 5.73 | 6.31 |
| 16:43 | 2 | 21.2 | 60 | 77,178 | 0 | 3.62 | 3.16 | 13.36 | 68.73 | 3.54 | 2 | 6.49 | 7.14 |
| 16:42 | 2 | 21.1 | 59 | 77,433 | 0 | 3.57 | 3.09 | 9.33 | 51.71 | 4.2 | 2 | 5.82 | 6.4 |
| 16:41 | 2 | 21.1 | 61 | 77,715 | 0 | 6.68 | 3.01 | 15.48 | 66.16 | 4.1 | 2 | 5.71 | 6.28 |
| 16:40 | 2 | 21.2 | 60 | 77,713 | 0 | 5.23 | 2.97 | 13.7 | 65.96 | 4.07 | 2 | 5.77 | 6.35 |
| 16:39 | 2 | 21.2 | 60 | 77,899 | 0 | 2.88 | 3.07 | 12.71 | 50.63 | 4.28 | 2 | 5.76 | 6.33 |
| 16:37 | 2 | 21.4 | 61 | 78,775 | 0 | 4.06 | 3.04 | 12.84 | 55.82 | 4.39 | 2 | 5.74 | 6.32 |
| 16:35 | 2 | 21.5 | 59 | 80,305 | 0.02 | 5.09 | 2.69 | 14.53 | 60.14 | 4.59 | 2 | 6.58 | 7.23 |
| 16:34 | 2 | 21.6 | 60 | 81,433 | 0 | 2.95 | 2.43 | 13.18 | 67.22 | 4.41 | 2 | 5.81 | 6.4 |
| 16:33 | 2 | 21.6 | 58 | 83,024 | 0.02 | 0.7 | 2.22 | 12.83 | 48.62 | 3.36 | 2 | 5.88 | 6.47 |